Lapse_Rate
5.2 6.2 7.9 7.9 6.5 6.5 6.5 6.5 6.5 6.5 6.5 7.2 7.6 7.0 6.6 7.0 6.5 6.5 6.9 8.9 9.6 9.4 6.7 6.5 6.1 6.4 6.6 6.6 6.5 6.2 5.9 6.1 6.6 6.6 6.7 6.5 6.4 6.2 6.3 6.6 6.6 6.6 6.7 6.6 6.7 6.4 6.2 6.3 5.8
9.3 9.4 8.2 6.0 6.5 6.5 6.5 6.5 6.5 6.5 6.9 7.5 7.5 7.5 7.0 6.5 8.2 8.3 8.6 9.0 9.6 9.5 8.6 7.2 6.1 6.4 6.2 6.2 6.1 6.1 6.0 6.3 6.3 6.6 6.7 6.5 6.5 6.6 6.7 6.6 6.5 6.2 6.4 6.4 6.2 6.2 6.0 5.7 5.6
6.4 9.3 6.2 6.5 6.5 6.5 6.5 6.5 6.5 6.8 7.3 7.2 7.1 7.9 7.5 7.1 8.3 8.6 8.3 9.5 9.4 9.5 8.1 6.4 6.5 6.8 6.6 6.4 6.4 6.5 6.3 6.6 6.7 6.7 6.7 6.5 6.6 6.7 7.0 6.7 6.8 6.4 6.1 6.1 6.0 5.9 5.8 5.5 5.5
8.0 8.0 6.6 6.5 6.5 6.5 6.5 6.5 6.6 6.6 7.3 7.7 7.6 6.6 8.1 8.7 8.6 9.2 9.6 9.7 9.2 9.3 6.8 6.3 6.5 6.8 6.7 6.3 6.3 6.5 6.6 6.6 7.1 6.9 6.9 6.8 6.7 6.7 6.9 6.8 6.8 6.8 6.2 6.1 6.0 5.9 5.7 5.1 5.1
8.6 6.7 6.5 6.5 6.5 6.5 6.5 6.8 7.0 6.5 6.7 7.1 7.6 6.7 7.3 8.7 9.3 9.5 9.5 9.6 9.2 9.1 6.9 6.8 6.5 6.4 6.3 6.2 6.3 6.3 6.3 6.6 6.8 7.0 6.6 6.5 6.6 6.7 6.7 6.9 6.7 6.5 6.2 6.2 6.0 6.0 5.6 5.2 4.9
7.0 6.1 6.5 6.5 6.5 6.5 6.5 7.1 7.0 6.8 7.1 7.4 7.2 7.2 7.5 8.9 9.0 9.3 9.6 8.7 9.8 9.6 8.2 7.7 6.3 6.3 6.3 6.1 6.0 6.2 6.4 6.6 6.7 6.7 6.7 6.4 6.4 6.6 6.8 7.2 7.1 6.3 6.3 6.2 6.0 5.9 5.7 5.5 5.3
6.6 6.5 6.5 6.5 6.5 6.5 6.5 7.3 6.6 6.7 6.9 7.0 7.9 6.5 7.7 8.5 9.1 9.4 9.4 8.2 8.4 9.6 9.4 8.4 7.0 6.6 6.5 6.3 6.0 6.2 6.2 6.6 6.5 6.5 6.4 6.3 6.5 6.5 6.7 6.7 6.6 7.1 6.4 6.2 5.8 5.6 5.5 5.2 5.2
7.2 6.5 6.5 6.5 6.5 6.5 6.7 7.1 7.4 7.1 6.8 8.3 8.3 6.6 6.8 8.5 9.2 9.5 9.3 8.9 9.0 9.6 9.8 9.3 7.6 7.5 7.6 6.8 6.1 6.0 6.1 6.3 6.3 6.3 6.4 6.3 6.3 6.4 6.3 6.2 6.3 6.1 6.3 6.0 5.5 5.0 4.6 4.6 5.0
8.3 6.5 6.5 6.5 6.5 6.5 7.0 6.6 7.7 8.1 7.5 7.7 8.1 8.1 8.5 9.1 9.3 9.2 9.0 9.1 8.6 9.2 9.4 9.4 9.4 9.0 8.6 6.7 6.1 5.9 6.1 6.3 6.3 6.1 6.3 6.4 7.2 6.9 6.6 6.4 5.9 6.1 6.0 5.5 4.9 4.9 4.9 4.8 4.6
6.7 6.5 6.5 6.5 6.5 6.5 6.7 6.9 7.2 7.0 7.1 7.2 7.7 8.4 8.8 9.0 8.9 8.6 8.6 8.1 8.8 9.0 9.4 9.7 9.7 9.0 8.5 9.5 6.5 6.6 6.5 6.8 7.6 7.9 7.4 7.1 8.3 8.4 7.7 6.2 5.8 6.0 5.6 5.1 5.3 5.3 5.5 5.1 7.4
6.8 6.5 6.5 6.6 7.1 7.2 6.8 6.8 7.3 6.8 6.5 7.3 7.2 7.9 8.5 8.6 8.6 8.6 8.7 8.8 8.9 9.2 8.7 9.6 9.7 9.1 9.6 8.2 7.9 7.2 7.2 6.8 7.0 5.7 6.5 7.1 7.3 7.4 7.4 5.6 6.1 5.7 5.1 6.0 5.2 5.0 5.4 6.2 6.0
6.5 6.8 6.9 6.6 7.3 7.1 6.6 7.2 6.8 5.8 7.1 8.1 8.2 8.4 8.5 8.4 8.5 8.6 8.5 8.7 8.9 9.1 9.2 9.5 9.4 8.9 8.5 5.0 5.3 8.7 6.2 7.8 7.7 6.7 8.4 7.5 8.0 7.7 7.4 6.6 6.7 6.7 6.1 7.6 7.8 7.6 8.7 8.5 9.1
6.5 6.5 7.0 7.4 7.2 7.2 7.4 6.8 6.8 7.0 7.9 8.3 8.4 8.3 8.3 8.4 8.5 8.7 8.9 9.0 9.1 8.9 8.3 8.8 7.6 6.5 6.4 4.4 5.6 5.8 3.7 4.5 7.9 7.3 7.1 6.8 7.8 7.9 8.5 8.0 7.7 8.2 7.7 8.4 7.5 7.8 8.0 8.6 8.7
6.8 6.9 6.8 7.0 7.1 7.2 6.7 6.7 7.1 7.3 8.1 8.0 8.0 8.0 8.3 8.4 8.5 8.6 8.7 8.8 8.8 9.0 8.9 9.4 8.6 8.6 8.7 6.0 5.6 4.7 3.9 4.5 7.0 6.3 6.8 6.8 6.4 6.4 7.4 7.9 8.0 8.1 8.7 9.2 8.4 7.8 7.6 6.2 7.9
5.2 6.5 6.5 6.6 7.0 6.6 7.1 6.5 6.5 7.5 7.9 7.6 7.7 8.0 8.2 8.3 8.6 8.5 8.7 8.7 9.0 9.2 9.1 9.1 9.1 9.5 8.0 8.8 8.2 8.1 8.1 7.5 7.6 8.1 8.9 8.4 8.5 8.5 8.7 8.4 7.9 8.7 8.3 8.3 8.0 7.3 8.0 7.0 8.3
6.5 6.5 6.5 6.5 6.6 6.8 6.8 6.5 6.5 7.6 7.6 7.3 7.4 7.8 8.0 8.2 8.5 8.7 8.9 8.9 8.8 9.0 7.9 9.0 9.6 9.4 8.4 7.8 7.7 4.8 5.4 7.2 7.9 8.0 8.0 8.9 8.6 8.6 7.7 7.5 7.8 8.4 7.7 7.5 6.8 6.0 5.7 6.9 6.8
6.5 6.5 6.5 6.5 6.8 6.5 6.5 6.5 6.3 7.7 7.5 7.2 7.4 7.6 7.9 8.1 8.3 8.6 8.9 9.1 9.0 8.5 8.0 8.4 8.1 9.0 8.5 7.8 5.6 6.6 7.2 7.8 8.5 8.2 7.7 8.0 8.1 8.2 7.7 8.1 7.7 7.8 7.5 7.1 6.6 6.8 7.1 7.0 6.1
6.5 6.5 6.5 6.5 6.5 6.5 6.5 6.5 6.5 7.4 7.4 7.2 7.4 7.6 7.7 7.9 8.2 8.6 8.9 9.1 9.1 8.6 8.4 8.3 8.5 8.0 7.5 7.6 7.4 6.9 7.8 6.9 8.9 8.4 7.4 7.2 7.9 7.9 7.6 7.6 7.4 7.4 6.7 6.0 6.2 6.1 6.8 6.4 7.1
6.5 6.5 6.5 6.5 6.5 6.5 6.5 6.5 6.5 6.9 7.1 7.0 7.2 7.4 7.6 7.8 8.4 8.7 9.0 9.1 9.1 8.8 8.6 8.3 7.8 7.3 8.1 7.7 6.5 7.3 5.4 7.2 5.7 7.2 7.4 8.4 7.8 7.7 7.7 7.9 7.1 6.9 6.7 6.8 7.2 7.3 7.1 5.8 6.5
6.5 6.5 6.5 6.5 6.5 6.5 6.5 6.5 6.5 6.5 6.7 7.2 7.3 7.3 7.6 7.9 8.1 8.4 8.6 8.7 9.0 8.6 8.6 7.9 7.7 7.4 8.1 7.3 6.1 7.4 7.4 7.7 6.6 7.7 8.2 8.2 8.0 7.8 8.0 7.3 6.8 8.0 7.0 6.5 7.2 7.3 6.6 6.2 6.1
6.5 6.5 6.5 6.5 6.5 6.5 6.5 6.5 6.5 6.5 6.9 7.2 7.6 7.6 7.8 7.9 7.9 8.2 8.2 8.4 8.9 8.4 8.5 8.1 7.7 7.4 7.6 7.5 7.6 6.5 7.1 6.1 6.1 5.5 7.8 7.7 8.2 8.0 8.4 8.8 7.6 7.3 7.6 6.4 6.2 7.0 7.3 6.6 6.4
6.5 6.5 6.5 6.5 6.5 6.5 6.5 6.5 6.5 6.5 6.5 6.5 7.1 7.5 7.6 7.9 8.2 8.1 8.3 8.3 8.7 8.7 9.0 8.1 8.2 7.3 7.4 7.9 7.7 7.1 7.6 6.9 5.3 6.3 7.5 7.7 8.8 8.4 9.0 8.3 8.6 7.6 7.0 6.1 7.1 7.7 7.0 6.5 6.4
6.5 6.5 6.5 6.5 6.5 6.5 6.5 6.5 6.5 6.5 6.5 6.5 6.8 7.3 7.7 8.0 8.2 8.3 8.4 8.5 8.9 8.9 9.1 8.2 8.0 7.5 7.6 7.8 7.6 7.5 6.0 5.9 7.6 5.7 6.2 6.8 7.4 8.5 8.9 8.4 8.4 7.1 6.8 7.7 7.0 6.6 6.5 5.9 5.9
6.5 6.5 6.5 6.5 6.5 6.5 6.5 6.5 6.5 6.5 6.5 6.5 6.8 7.5 7.6 7.9 8.1 8.3 8.5 8.5 8.7 8.9 9.0 8.2 7.7 7.4 7.5 7.7 7.4 6.8 5.9 6.9 7.1 5.8 7.3 7.3 7.4 8.0 8.1 7.9 7.8 7.8 7.0 7.4 6.9 7.3 6.5 5.8 5.8
6.5 6.5 6.5 6.5 6.5 6.5 6.5 6.5 6.5 6.5 6.5 6.5 6.5 7.3 7.7 7.1 7.6 8.2 8.0 8.2 8.1 8.4 8.7 8.6 7.0 7.3 7.5 7.2 8.0 7.1 6.6 6.8 6.4 6.3 7.5 6.9 7.5 7.5 6.6 6.9 7.0 7.4 7.6 8.0 6.5 5.9 5.8 5.1 5.2
6.5 6.5 6.5 6.5 6.5 6.5 6.5 6.5 6.5 6.5 6.8 7.0 7.1 7.5 7.9 7.9 7.8 7.9 8.6 8.2 8.2 8.5 8.4 8.4 6.7 6.7 7.3 7.5 7.1 6.8 7.5 7.2 7.1 6.9 7.2 7.3 6.8 7.0 6.1 6.4 6.8 7.4 7.6 7.3 5.8 5.8 5.1 5.2 4.6
6.5 6.5 6.5 6.5 6.5 6.5 6.5 6.5 6.5 6.5 6.5 6.6 6.9 7.2 7.6 8.0 8.1 8.3 8.5 8.6 8.5 8.5 8.4 8.4 6.7 6.7 7.0 7.5 7.0 6.5 6.6 6.5 7.4 7.0 6.8 6.8 7.0 6.0 5.8 6.1 6.7 7.2 7.9 7.8 7.1 5.8 5.5 6.5 4.7
6.5 6.5 6.5 6.5 6.5 6.5 6.5 6.5 6.5 6.5 6.5 6.5 6.5 6.5 7.2 7.7 8.1 7.3 8.5 8.3 8.6 8.9 8.7 8.6 7.7 6.4 6.9 7.0 7.5 6.9 6.4 6.1 6.4 6.9 6.5 6.5 7.3 7.5 6.8 6.6 6.8 8.0 7.8 7.8 7.6 7.7 7.2 6.0 5.5
6.5 6.5 6.5 6.5 6.5 6.5 6.5 6.5 6.5 6.5 6.5 6.5 6.5 7.1 7.3 7.6 8.0 8.3 8.7 8.6 8.6 9.0 9.1 8.9 8.6 7.3 7.1 7.0 7.9 7.5 6.6 6.3 6.5 6.8 7.4 6.9 7.3 7.3 6.5 7.4 7.4 7.4 7.6 7.8 7.3 7.2 7.9 7.3 6.4
6.5 6.5 6.5 6.5 6.5 6.5 6.5 6.5 6.5 6.5 6.5 6.3 6.7 7.0 7.2 7.8 8.2 8.2 8.4 8.2 8.5 8.5 8.7 8.7 8.6 7.9 6.8 7.1 7.9 7.8 7.2 6.6 6.4 6.6 7.0 7.9 6.8 8.0 7.2 6.9 7.3 7.4 7.4 7.4 7.1 7.1 7.6 6.5 6.1
Wind_Speed
9 11 9 5 3 5 17 14 14 17 16 16 23 17 19 14 10 14 10 18 20 17 17 15 13 14 14 14 13 13 12 12 13 13 15 15 14 15 14 17 18 20 19 19 19 20 19 19 15
12 8 3 3 4 3 3 22 3 18 20 19 17 25 24 25 23 22 18 19 18 18 19 15 10 14 13 14 12 12 12 12 13 14 14 15 15 14 15 16 16 18 17 17 18 19 18 16 12
12 2 4 4 3 9 7 16 15 18 14 12 15 20 16 17 17 21 20 19 18 16 21 16 13 13 13 12 11 13 13 13 14 14 14 15 15 15 16 16 15 16 15 16 16 15 14 12 10
3 2 5 3 3 21 14 13 16 20 16 18 20 16 20 22 22 19 20 19 16 17 21 17 16 15 13 13 13 14 14 14 13 15 15 15 15 15 16 16 15 15 15 14 13 13 12 10 8
5 3 3 6 9 20 18 10 17 13 13 20 23 19 21 21 20 16 22 20 21 17 20 17 16 16 15 15 15 15 13 14 13 15 14 14 14 14 15 15 16 15 14 14 13 13 12 11 6
4 5 3 10 18 17 15 7 10 15 18 21 20 21 20 18 18 16 15 18 19 19 20 18 16 17 16 17 16 15 13 14 13 14 14 13 13 14 13 15 15 14 14 13 15 12 10 7 3
3 1 2 13 15 6 15 6 2 14 21 19 21 22 16 18 16 16 18 16 22 21 18 18 18 17 16 16 16 15 14 13 13 13 13 13 13 13 14 14 14 13 13 12 11 10 9 5 2
6 4 9 15 9 13 6 12 6 16 16 20 21 14 18 17 18 16 17 16 15 17 16 16 16 18 17 15 15 15 14 13 11 10 11 12 12 13 14 14 13 12 11 9 8 8 8 9 8
12 4 7 5 2 10 11 15 13 13 13 10 19 22 21 19 18 15 18 13 13 12 16 17 16 14 16 16 14 14 13 12 10 9 10 12 13 13 13 15 12 10 8 7 6 5 5 6 7
2 4 10 8 9 13 8 16 16 11 12 11 21 23 21 19 16 17 15 14 13 13 16 14 15 16 17 15 15 16 13 11 9 8 11 8 8 14 15 13 11 9 6 6 6 6 6 8 9
5 3 11 13 10 13 15 15 6 9 16 17 21 22 21 19 16 17 15 16 15 13 11 14 11 15 16 14 11 13 11 11 10 9 6 9 12 17 14 11 10 9 9 8 9 10 11 14 14
5 4 13 13 8 12 13 3 17 4 16 18 20 20 20 19 16 16 15 15 15 12 15 16 10 10 13 10 1 7 4 5 14 15 8 10 7 7 11 11 12 11 11 9 9 9 6 5 9
3 8 2 10 11 11 9 10 11 8 13 19 20 19 18 17 16 15 15 14 14 11 10 15 11 6 13 7 4 4 8 8 14 13 7 10 6 2 9 10 12 12 14 10 6 3 6 3 7
8 14 5 4 14 9 11 11 9 10 14 20 19 18 17 17 16 14 15 16 13 11 14 13 12 7 10 5 6 10 11 10 12 12 12 12 11 7 5 7 7 10 11 3 8 2 4 6 5
4 16 14 13 12 9 12 5 11 13 16 19 17 16 17 17 17 15 15 14 14 12 14 11 11 8 6 4 4 6 16 11 11 9 13 13 11 9 6 3 5 5 11 10 2 6 7 3 5
16 10 6 10 9 7 9 5 12 16 17 18 17 16 16 16 17 15 14 12 14 13 14 12 12 12 9 6 4 4 5 12 12 13 10 11 6 8 7 4 4 10 9 9 6 5 5 1 4
10 6 4 1 15 10 9 9 3 17 17 17 15 16 15 16 15 14 16 14 14 13 13 10 11 13 8 7 4 5 11 9 12 16 13 10 10 9 3 6 8 11 8 5 5 2 3 1 4
11 14 14 8 9 16 11 13 19 20 20 19 18 18 16 17 17 16 16 15 15 14 13 10 10 11 9 5 3 4 2 2 12 14 15 14 10 7 6 10 7 8 4 1 4 5 4 3 2
5 14 18 16 11 14 11 18 19 20 20 20 20 19 18 18 17 18 17 15 15 15 13 9 9 11 7 6 3 3 4 2 6 10 15 12 12 8 4 6 5 6 3 4 4 2 2 4 3
15 15 21 6 12 12 6 4 21 23 19 23 21 20 20 19 19 17 16 16 16 16 14 12 11 11 8 6 3 3 2 4 6 10 10 12 13 9 7 5 5 3 3 5 3 2 3 3 3
23 18 20 16 8 8 11 15 25 21 20 21 20 18 20 21 21 18 17 17 16 17 15 13 13 11 9 8 5 4 1 4 3 3 5 6 12 10 7 3 2 3 1 4 4 3 3 3 2
22 16 18 7 8 10 17 11 15 19 18 24 22 21 19 21 20 20 18 17 17 17 16 15 11 13 10 7 6 7 5 7 6 7 7 6 11 8 7 5 4 2 3 5 4 2 2 1 3
22 23 19 12 13 11 13 10 15 21 20 24 24 25 24 19 21 22 22 18 18 19 16 15 12 13 10 7 5 5 5 5 5 5 11 8 7 11 12 8 4 3 2 3 4 4 1 3 2
23 23 15 12 18 11 21 14 17 18 21 23 27 27 26 24 21 22 21 19 16 18 17 17 15 13 11 9 7 7 9 4 6 8 8 8 7 4 7 12 8 5 4 3 1 1 2 2 3
23 21 14 13 12 14 19 18 7 4 10 18 19 26 25 18 20 21 23 20 18 19 20 18 18 14 13 11 9 9 7 6 5 11 7 7 9 8 7 7 6 5 5 4 3 4 3 4 2
25 23 16 17 15 16 20 17 12 19 19 17 23 24 26 24 21 21 24 21 20 19 18 19 18 16 15 14 11 9 7 5 4 6 5 6 4 10 11 7 8 7 10 6 7 3 4 5 3
26 22 23 26 22 15 14 20 16 13 14 13 20 21 25 29 25 25 24 23 21 18 19 19 20 18 17 15 12 10 8 8 5 6 3 4 1 7 11 9 8 7 7 8 5 4 6 4 5
27 18 20 16 21 15 21 10 12 14 12 14 13 20 21 19 23 21 22 23 22 20 17 18 19 18 18 17 13 12 11 9 7 4 5 6 4 6 11 10 8 6 7 6 6 5 6 6 4
17 20 23 18 19 16 15 14 19 14 14 13 14 19 22 21 19 21 22 23 23 22 19 19 18 19 17 16 14 13 13 12 9 7 5 8 5 4 8 6 6 8 7 7 7 6 4 6 6
28 24 26 16 19 16 15 15 10 15 14 9 13 13 17 20 21 17 18 23 23 22 21 20 19 19 18 15 13 14 13 13 13 11 9 6 6 4 6 7 7 6 7 7 7 8 8 11 11
Wind_Direction
192 216 226 247 261 221 101 98 101 79 76 67 82 69 68 31 59 106 128 121 120 112 124 127 124 116 111 107 100 98 92 94 94 96 101 100 95 91 87 90 91 91 93 92 94 92 89 87 85
216 208 310 268 239 73 58 88 270 86 54 75 73 80 73 81 93 118 113 113 112 126 116 120 124 118 118 114 109 101 95 92 90 93 99 101 97 98 96 90 93 95 96 94 92 87 89 90 88
252 184 358 306 270 123 136 96 94 89 84 68 78 68 89 118 111 107 109 115 118 120 107 116 123 125 114 110 110 105 103 102 101 96 97 99 101 97 102 99 99 100 96 93 93 93 86 85 83
252 199 225 251 300 98 101 104 116 115 86 100 102 81 78 89 109 122 123 126 118 106 109 114 124 124 115 111 109 111 109 103 102 104 104 100 101 99 104 105 104 100 94 90 90 87 79 92 97
260 271 246 221 180 80 89 83 91 85 107 97 101 107 98 104 115 127 123 123 117 110 114 119 120 122 122 117 116 115 111 107 106 104 100 100 99 98 97 100 101 98 95 89 92 89 91 88 83
247 100 252 87 91 94 93 91 95 139 98 102 110 107 108 129 127 141 134 120 124 118 117 122 120 120 122 123 121 119 118 114 110 112 111 112 108 102 101 101 100 103 98 93 97 97 95 92 84
249 151 294 113 103 116 102 113 168 107 112 129 110 115 129 131 141 128 114 148 122 128 120 130 129 122 123 124 124 125 123 118 118 122 121 121 111 105 101 100 103 106 104 105 107 107 113 122 139
255 121 316 121 123 100 120 96 94 100 105 118 134 142 147 141 129 136 117 122 133 133 141 126 139 139 133 131 131 129 128 121 123 131 133 130 123 123 118 115 111 116 117 123 131 139 150 175 177
288 60 331 306 94 140 92 98 79 86 123 106 96 142 132 142 149 127 119 118 124 142 138 138 146 159 130 137 138 137 133 133 142 156 159 162 148 154 146 114 126 125 129 154 163 157 193 231 256
240 118 235 130 234 106 105 104 127 112 120 123 119 118 140 140 153 135 146 134 162 132 145 130 153 149 155 138 164 140 146 155 171 168 167 198 133 150 130 131 132 135 167 198 197 210 227 250 229
258 210 197 130 114 116 135 114 39 129 128 127 132 138 146 150 150 148 146 154 140 158 129 144 138 161 140 137 172 148 164 164 130 86 214 189 134 131 133 141 147 162 203 213 201 200 228 227 245
297 187 56 313 126 90 89 63 100 52 116 132 138 148 149 158 153 159 148 147 145 156 151 126 130 116 111 71 144 197 99 133 148 162 165 113 136 160 141 175 167 180 204 205 214 230 183 164 47
256 258 204 137 104 105 126 88 90 98 119 133 139 156 157 160 159 159 148 149 142 148 115 115 104 94 117 135 207 66 75 266 108 120 127 132 154 114 182 159 171 192 197 212 134 83 309 201 156
216 275 193 197 141 150 120 132 99 126 134 139 147 163 167 157 159 150 156 152 146 151 124 121 120 118 114 148 185 132 172 214 131 151 187 187 185 183 237 169 183 163 182 168 113 226 206 239 227
182 248 202 164 157 153 93 53 147 147 147 143 159 170 171 161 160 156 160 147 158 156 132 135 132 146 136 158 188 148 174 162 120 132 92 94 119 162 152 166 122 156 73 82 155 253 256 318 136
214 201 211 340 188 166 150 174 227 160 157 150 185 174 169 168 159 163 158 155 144 161 132 161 160 151 180 168 192 108 251 147 156 129 127 137 176 189 207 170 138 119 160 191 197 223 276 20 110
254 130 151 225 303 178 183 118 250 170 166 166 200 177 169 172 161 161 162 169 150 145 139 188 148 155 164 172 93 210 220 168 144 142 141 149 178 215 268 166 135 175 205 226 223 162 60 186 292
249 241 193 172 224 227 179 181 187 178 183 173 204 181 180 173 172 167 170 171 157 141 147 196 152 145 149 180 203 230 142 267 160 142 144 168 180 214 261 120 159 211 232 217 49 33 31 278 51
153 306 255 193 208 250 219 154 176 184 194 175 198 183 188 179 172 169 173 168 161 152 163 171 157 144 151 185 176 164 221 50 92 114 152 167 160 201 237 148 193 241 232 90 88 117 265 310 56
216 247 267 207 188 231 203 101 190 180 186 175 192 186 192 183 174 170 171 165 168 159 169 160 145 152 186 192 179 186 167 181 130 140 157 146 170 177 219 171 199 177 122 115 99 294 316 247 86
256 221 264 192 145 234 234 205 214 180 178 175 191 198 195 188 178 170 172 170 171 162 169 166 156 166 203 189 190 123 170 110 97 147 169 174 152 182 242 181 107 128 227 150 159 232 289 339 41
253 231 240 158 209 252 217 244 214 170 173 174 189 194 206 193 179 168 178 174 173 163 171 165 168 170 211 220 159 185 178 164 173 200 152 147 146 191 156 190 157 288 17 128 190 181 16 329 330
251 262 244 273 216 246 218 232 203 181 178 177 186 189 199 198 188 172 182 180 177 168 171 164 174 173 208 204 175 188 191 216 171 128 143 156 177 200 176 176 171 220 249 209 93 93 43 341 305
254 258 255 263 275 262 257 220 286 181 192 186 187 185 189 196 188 176 176 176 189 170 173 165 173 179 206 210 200 200 217 241 163 153 158 165 165 204 186 164 171 194 245 119 219 162 184 270 343
227 245 246 217 249 246 248 245 178 158 158 183 184 176 182 186 193 180 172 175 188 183 175 169 171 181 193 199 193 225 227 226 253 152 166 184 179 184 187 160 166 191 194 158 206 166 260 208 242
231 229 242 235 222 229 228 244 240 181 176 188 178 174 179 191 184 196 174 173 183 191 182 171 172 179 187 191 194 211 220 239 244 174 175 207 200 183 163 153 174 216 175 190 170 178 200 233 207
240 228 233 253 256 266 251 213 219 202 167 176 176 168 180 185 193 187 177 175 180 192 187 176 173 181 185 195 189 198 217 236 239 197 218 279 185 136 155 169 174 186 203 188 178 205 187 215 187
232 242 222 240 254 248 273 234 243 154 180 195 172 164 176 185 186 187 179 175 176 183 188 181 173 183 187 191 190 192 202 214 241 284 214 232 258 144 165 164 179 182 211 189 196 228 202 183 204
212 234 251 252 236 253 244 260 194 161 216 190 185 173 173 178 192 186 178 176 176 178 186 184 187 181 188 193 195 193 192 204 214 222 228 233 236 181 151 173 188 188 204 205 188 222 267 197 201
229 219 236 246 236 247 261 262 178 168 168 86 211 165 175 179 184 190 185 173 175 178 185 186 192 181 186 189 196 193 193 199 208 208 226 205 210 210 187 181 199 210 207 205 205 209 234 190 211